User: anonymous   Login
Location: Unspecified
(0.0000°N, 0.0000°E)
Time: 05:43:01
(UTC+00:00)
Language:

YAOGAN-43 02D - Orbit

View from above orbital plane
View from above orbital plane
View from above satellite
View from above satellite

Ground track
Ground track

The orbit is defined by the following mean orbital elements,

1 60948U          26145.63485655 +.00000000 +00000-0 +30412-3 0 00003
2 60948  34.9928 339.7868 0002443  20.0288 340.0522 15.23015803    05
Epoch (UTC): 25 May 2026 15:14:11
Eccentricity: 0.0002443
inclination: 34.9928°
perigee height: 495 km
apogee height: 498 km
right ascension of ascending node: 339.7868°
argument of perigee: 20.0288°
revolutions per day: 15.23015803
mean anomaly at epoch: 340.0522°

The dashed part of the orbit path shows where the satellite is in the earth's shadow,  

DLR